| time (UTC) | temp C | wind direction | speed KPH | gust KPH | rain 1hr cm | rain 24hr cm | rain mn cm | humidity % | barometer mb |
| 20260504044543 | 12 | 18 | 27.4 | 43.5 | 0.00 | 0.00 | 0.00 | 39 | 1011.2 |
| 20260504043037 | 13 | 28 | 27.4 | 40.2 | 0.00 | 0.00 | 0.00 | 37 | 1010.6 |
| 20260504041535 | 13 | 31 | 17.7 | 32.2 | 0.00 | 0.00 | 0.00 | 36 | 1009.8 |
| 20260504040058 | 13 | 5 | 17.7 | 27.4 | 0.00 | 0.00 | 0.00 | 35 | 1009.3 |
| 20260504034550 | 14 | 12 | 20.9 | 32.2 | 0.00 | 0.00 | 0.00 | 34 | 1009.0 |
| 20260504033037 | 14 | 8 | 22.5 | 32.2 | 0.00 | 0.00 | 0.00 | 35 | 1008.7 |
| 20260504031536 | 14 | 2 | 19.3 | 32.2 | 0.00 | 0.00 | 0.00 | 36 | 1008.4 |
| 20260504030055 | 15 | 17 | 24.1 | 33.8 | 0.00 | 0.00 | 0.00 | 34 | 1008.2 |
| 20260504024538 | 15 | 31 | 22.5 | 32.2 | 0.00 | 0.00 | 0.00 | 33 | 1008.0 |
| 20260504023037 | 16 | 12 | 24.1 | 33.8 | 0.00 | 0.00 | 0.00 | 30 | 1007.9 |
| 20260504021538 | 17 | 25 | 16.1 | 27.4 | 0.00 | 0.00 | 0.00 | 26 | 1007.9 |
| 20260504020037 | 18 | 11 | 16.1 | 32.2 | 0.00 | 0.00 | 0.00 | 23 | 1007.9 |
| 20260504014537 | 20 | 340 | 16.1 | 22.5 | 0.00 | 0.00 | 0.00 | 19 | 1007.8 |
| 20260504013048 | 20 | 355 | 24.1 | 32.2 | 0.00 | 0.00 | 0.00 | 17 | 1007.9 |
| 20260504011540 | 21 | 329 | 22.5 | 29.0 | 0.00 | 0.00 | 0.00 | 17 | 1007.9 |
| 20260504010037 | 21 | 335 | 20.9 | 29.0 | 0.00 | 0.00 | 0.00 | 16 | 1007.8 |
| 20260504004537 | 21 | 331 | 19.3 | 30.6 | 0.00 | 0.00 | 0.00 | 17 | 1007.9 |
| 20260504003037 | 21 | 330 | 22.5 | 32.2 | 0.00 | 0.00 | 0.00 | 17 | 1008.2 |
| 20260504001541 | 21 | 320 | 20.9 | 35.4 | 0.00 | 0.00 | 0.00 | 17 | 1008.4 |
| 20260504000037 | 21 | 332 | 22.5 | 33.8 | 0.00 | 0.00 | 0.00 | 17 | 1008.4 |
| 20260503234540 | 21 | 309 | 20.9 | 38.6 | 0.00 | 0.00 | 0.00 | 17 | 1008.5 |
| 20260503233039 | 21 | 307 | 22.5 | 37.0 | 0.00 | 0.00 | 0.00 | 17 | 1008.7 |
| 20260503231537 | 21 | 295 | 24.1 | 48.3 | 0.00 | 0.00 | 0.00 | 17 | 1008.7 |
| 20260503230038 | 21 | 314 | 29.0 | 45.1 | 0.00 | 0.00 | 0.00 | 17 | 1008.6 |
| 20260503224537 | 21 | 321 | 20.9 | 41.8 | 0.00 | 0.00 | 0.00 | 17 | 1009.0 |
| 20260503223036 | 21 | 316 | 19.3 | 40.2 | 0.00 | 0.00 | 0.00 | 18 | 1009.1 |
| 20260503221544 | 21 | 297 | 25.7 | 43.5 | 0.00 | 0.00 | 0.00 | 17 | 1009.0 |
| 20260503220036 | 21 | 307 | 25.7 | 38.6 | 0.00 | 0.00 | 0.00 | 18 | 1009.1 |
| 20260503214539 | 21 | 322 | 24.1 | 33.8 | 0.00 | 0.00 | 0.00 | 18 | 1009.3 |
| 20260503213043 | 21 | 290 | 27.4 | 38.6 | 0.00 | 0.00 | 0.00 | 18 | 1009.6 |
| 20260503211538 | 21 | 289 | 20.9 | 35.4 | 0.00 | 0.00 | 0.00 | 18 | 1009.7 |
| 20260503210040 | 20 | 275 | 24.1 | 38.6 | 0.00 | 0.00 | 0.00 | 19 | 1010.0 |
| 20260503204547 | 20 | 326 | 14.5 | 38.6 | 0.00 | 0.00 | 0.00 | 19 | 1010.2 |
| 20260503203042 | 20 | 309 | 22.5 | 41.8 | 0.00 | 0.00 | 0.00 | 19 | 1010.3 |
| 20260503201538 | 20 | 295 | 22.5 | 32.2 | 0.00 | 0.00 | 0.00 | 19 | 1010.4 |
| 20260503200037 | 20 | 297 | 29.0 | 40.2 | 0.00 | 0.00 | 0.00 | 20 | 1010.7 |
| 20260503194539 | 20 | 298 | 16.1 | 37.0 | 0.00 | 0.00 | 0.00 | 20 | 1010.9 |
| 20260503193052 | 19 | 314 | 22.5 | 37.0 | 0.00 | 0.00 | 0.00 | 22 | 1011.2 |
| 20260503191543 | 19 | 305 | 25.7 | 38.6 | 0.00 | 0.00 | 0.00 | 20 | 1011.4 |
| 20260503190046 | 19 | 290 | 24.1 | 41.8 | 0.00 | 0.00 | 0.00 | 20 | 1011.6 |
| 20260503184539 | 19 | 305 | 22.5 | 40.2 | 0.00 | 0.00 | 0.00 | 20 | 1011.6 |
| 20260503183049 | 19 | 266 | 22.5 | 35.4 | 0.00 | 0.00 | 0.00 | 19 | 1011.7 |
| 20260503181539 | 18 | 272 | 17.7 | 35.4 | 0.00 | 0.00 | 0.00 | 20 | 1011.9 |
| 20260503180049 | 20 | 256 | 22.5 | 32.2 | 0.00 | 0.00 | 0.00 | 19 | 1012.2 |
| 20260503174534 | 20 | 291 | 22.5 | 38.6 | 0.00 | 0.00 | 0.00 | 19 | 1012.4 |
| 20260503173053 | 19 | 268 | 22.5 | 32.2 | 0.00 | 0.00 | 0.00 | 19 | 1012.6 |
| 20260503171545 | 19 | 279 | 25.7 | 37.0 | 0.00 | 0.00 | 0.00 | 20 | 1012.6 |
| 20260503081544 | 5 | 274 | 8.0 | 11.3 | 0.00 | 0.00 | 0.00 | 73 | 1015.3 |
| 20260503071547 | 6 | 221 | 6.4 | 9.7 | 0.00 | 0.00 | 0.00 | 66 | 1015.5 |